Weather in Khotilovo

Russia / Tver Oblast     57°43′32″N   34°04′34″E
temp.,
°C
wind,
m/s
gust,
m/s
humid.,
%
clouds,
%
prec.,
mm/h
press.,
hPa
HPBL,
m
20 january, wed
wed2000:00−14wsw259777 0.0 1017102
03:00−14wsw269648 0.0 1018132
06:00−13wsw389797 0.0 1017198
09:00−12w389396 0.0 1018261
12:00−10w369198 0.0 1018269
15:00−9wsw259367 0.0 1018259
18:00−13ssw23950 0.0 101950
21:00−14ssw379414 0.0 1018148
21 january, thu
thu2100:00−15s379444 0.0 1017190
03:00−14s388972 0.0 1015271
06:00−12s3795100 0.3 1013329
09:00−11s3795100 1.2 1011447
12:00−9s2593100 0.6 1010409
15:00−8s2393100 0.8 1010341
18:00−9sse2496100 0.1 1010128
21:00−8se2596100 0.4 1010170
22 january, fri
fri2200:00−7se3795100 0.4 1008224
03:00−4sse3795100 0.9 1007312
06:00−1s2797100 0.6 1007286
09:000ssw4895100 0.6 1006433
12:00+1ssw4895100 0.0 1006518
15:00+1ssw4997100 0.0 1006536
18:00+1ssw31194100 0.0 1004649
21:00+1s41098100 0.1 1004477
23 january, sat
sat2300:00+1s3898100 0.3 1004363
03:00+1ssw3995100 0.3 1004458
06:00+1s2795100 0.0 1003330
09:00+1s3898100 0.1 1003324
12:00+1ssw38100100 0.1 1003331
15:00+2ssw41099100 0.4 1004379
18:00+1ssw399698 0.2 1005359
21:00+1s289699 0.2 1006335
24 january, sun
sun2400:00+1s279697 0.0 1006250
03:00+1sse389899 0.0 1006332
06:00+1sse3898100 0.0 1005274
09:00+1s4109799 0.0 1004479
12:00+2s410100100 0.0 1004528
15:00+2s41199100 0.0 1003554
18:00+2se3898100 0.0 1002275
21:00+2se41298100 0.8 1001417